Miscellaneous Local Product
Issued by NWS North Platte, NE

Home | Current Version | Previous Version | Text Only | Print | Product List | Glossary On
Versions: 1 2 3 4 5 6 7 8 9 10 11 12 13 14 15 16 17 18 19 20 21 22 23 24 25 26 27 28 29 30 31 32 33 34 35 36 37 38 39 40 41 42 43 44 45 46 47 48 49 50
000
AXUS43 KLBF 272010
MISLBF


WESTERN AND NORTH CENTRAL NEBRASKA HOURLY WEATHER ROUNDUP
NATIONAL WEATHER SERVICE NORTH PLATTE NE
300 PM CDT MON MAR 27 2017

NOTE: "FAIR" INDICATES FEW OR NO CLOUDS BELOW 12,000 FEET WITH NO
SIGNIFICANT WEATHER AND/OR OBSTRUCTIONS TO VISIBILITY.

NOTE: STATIONS NOT REPORTING VARIABLES SUCH AS SKY/WEATHER OR
PRESSURE ARE PROVIDED BY RAWS AND APRS NETWORKS AND ARE NOT UNDER
NATIONAL WEATHER SERVICE QUALITY CONTROL.

...OBSERVATIONS IN AND NEAR THE EASTERN PANHANDLE OF NEBRASKA...

CITY           SKY/WX    TMP DP  RH WIND       PRES   REMARKS
PINE RIDGE     CLOUDY    62  36  37 E5        29.81F
CHADRON        MOSUNNY   62  32  32 VRB3      29.80F
ALLIANCE       PTSUNNY   61  28  28 SW17      29.82F
SIDNEY         CLOUDY    59  30  33 SW14      29.86F
CRESCENT LAKE    N/A     60  33  36 S12         N/A
$$

...OBSERVATIONS IN NORTHERN NEBRASKA AND FAR SOUTHERN SOUTH DAKOTA...

CITY           SKY/WX    TMP DP  RH WIND       PRES   REMARKS
WINNER         FAIR      60  39  45 SE8       29.89F
VALENTINE      SUNNY     58  38  47 SE6       29.88F
THEDFORD       SUNNY     59  43  54 SE10      29.90F
AINSWORTH      SUNNY     56  43  61 S8        29.90F
O`NEILL        SUNNY     57  38  48 S3        29.93F
ORD            PTSUNNY   54  41  61 SW8       29.93F
BROKEN BOW     CLOUDY    54  43  66 SE8       29.92F
VALENTINE NWR    N/A     55  42  62 S8          N/A
HALSEY           N/A     56  43  62 SE6         N/A
BUTTE            N/A     56  35  46 SE12        N/A
CHAMBERS         N/A     59  41  51 N3          N/A
EWING            N/A     55  40  56 CALM        N/A
$$

...OBSERVATIONS IN SOUTHWEST NEBRASKA AND FAR NORTHEAST COLORADO...

CITY           SKY/WX    TMP DP  RH WIND       PRES   REMARKS
WRAY           FAIR      64  32  29 SE7       29.89
HOLYOKE        FAIR      66  34  30 E8        29.87F
IMPERIAL       SUNNY     62  37  39 SW7       29.88F
OGALLALA       SUNNY     64  36  35 CALM      29.87F
NORTH PLATTE   SUNNY     63  39  41 VRB3      29.88F
MCCOOK         SUNNY     64  41  42 VRB3      29.89F
LEXINGTON      MOSUNNY   53  44  71 E3        29.93F
STAPLETON        N/A     62  42  48 CALM        N/A
GOTHENBURG       N/A     55  43  63 E6          N/A
CALLAWAY         N/A     55  47  74 S9          N/A
$$

...OBSERVATIONS IN CENTRAL LINCOLN COUNTY AREA...

CITY           SKY/WX    TMP DP  RH WIND       PRES   REMARKS
N.P. AIRPORT   SUNNY     63  39  41 VRB3      29.88F
N.P. DOWNTOWN    N/A     62  41  46 E3          N/A
N.P. SOUTHEAST   N/A     63  41  44 SE3         N/A
N.P. HILLCREST   N/A     61  43  50 SW3         N/A
$$

...SOME OBSERVATIONS FROM AROUND THE REGION...

CITY           SKY/WX    TMP DP  RH WIND       PRES   REMARKS
DENVER         PTSUNNY   62  28  27 SE13G23   29.83F
LIMON          MOSUNNY   57  35  43 S17G26    29.89F
ASPEN          CLOUDY    50  19  29 VRB5      29.85F
LARAMIE        CLOUDY    48  22  35 SW12      29.88F
CASPER         MOSUNNY   57  22  25 SW6       29.82F
CHEYENNE       CLOUDY    53  27  36 S7        29.87F
SCOTTSBLUFF    SUNNY     66  24  20 SW12      29.82F
GRAND ISLAND   CLOUDY    50  42  74 NW5       29.96F
OMAHA          CLOUDY    50  40  68 NE6       29.96F
SIOUX FALLS    MOSUNNY   58  37  45 E6        29.94F
PIERRE         SUNNY     58  31  35 SE8G17    29.89F
RAPID CITY     MOSUNNY   54  42  64 E9        29.85F
BISMARCK       MOSUNNY   64  33  31 VRB5      29.91F
KANSAS CITY    CLOUDY    50  49  96 N13       29.92F
HILL CITY      SUNNY     58  46  64 VRB6      29.93F
WICHITA        CLOUDY    53  46  77 N12       29.95F
DODGE CITY     SUNNY     63  37  38 VRB3      29.91F
OKLAHOMA CITY  MOSUNNY   65  47  52 N12       29.92F
DALLAS         MOSUNNY   70  55  59 NE8       29.90F
AMARILLO       SUNNY     68  37  32 VRB6      29.94F
$$




USA.gov is the U.S. government's official web portal to all federal, state and local government web resources and services.